Location: Neuvy Saint Sepulchre
(46.5953°N, 1.8122°E)
Time: 12:31:46
(UTC+02:00)

ISS - Pass Details

Date: 27 September 2022
Orbit: 414 x 417 km, 51.6° (Epoch: 01 October)

Event Time Altitude Azimuth Distance (km) Brightness Sun altitude
Rises 20:29:36 0° 289° (WNW) 2,362 2.0 -9.2°
Reaches altitude 10° 20:31:48 10° 299° (WNW) 1,498 0.3 -9.6°
Maximum altitude 20:34:56 35° 7° (N) 699 -2.6 -10.1°
Enters shadow 20:37:31 14° 71° (ENE) 1,298 -1.8 -10.6°
